Columbia Airport, CA

7:25 AM PDT on October 19, 2019 (GMT -0700)
Columbia Airport

Weather History for KO22 - August, 2019

Change the Weather History Date:

Monday, August 19, 2019

  Actual Average (KMOD) Record (KMOD)
Temperature  
Mean Temperature 73 °F -  
Max Temperature 89 °F 88 °F 106 °F (1950)
Min Temperature 57 °F 59 °F 49 °F (1959)
Cooling Degree Days 8    
Growing Degree Days 23 (Base 50)    
Moisture  
Dew Point 49 °F    
Average Humidity 47    
Maximum Humidity 82    
Minimum Humidity 21    
Precipitation  
Precipitation 0.00 in - - ()
Sea Level Pressure  
Sea Level Pressure 29.97 in    
Wind  
Wind Speed 2 mph (SW)    
Max Wind Speed 8 mph    
Max Gust Speed 14 mph    
Visibility 10 miles    
Events      
Averages and records for this station are not official NWS values.
T = Trace of Precipitation, MM = Missing Value Source: NWS Daily Summary

Daily Weather History Graph

Daily Weather History Graph

Search for Another Location

Airport or City:

Astronomy

Aug. 19, 2019 Rise Set
Actual Time 6:20 AM PDT 7:49 PM PDT
Civil Twilight 5:52 AM PDT 8:17 PM PDT
Nautical Twilight 5:18 AM PDT 8:50 PM PDT
Astronomical Twilight 4:43 AM PDT 9:25 PM PDT
Moon 10:17 PM PDT 10:02 AM PDT
Length of Visible Light 14h 25m
Length of Day
13h 29m
Waning Gibbous, 84% of the Moon is Illuminated
Aug 19
Waning Gibbous
Aug 23
Last Quarter
Aug 30
New
Sep 5
First Quarter
Sep 13
Full

Hourly Weather History & Observations

Time (PDT) Temp. Dew Point Humidity Pressure Visibility Wind Dir Wind Speed Gust Speed Precip Events Conditions
12:15 AM 62.6 °F 51.8 °F 68% 29.94 in 10.0 mi North - - N/A   Partly Cloudy
12:35 AM 62.6 °F 51.8 °F 68% 29.94 in 10.0 mi Calm Calm - N/A   Partly Cloudy
1:15 AM 60.8 °F 51.8 °F 72% 29.94 in 10.0 mi Calm Calm - N/A   Clear
1:35 AM 60.8 °F 50.0 °F 68% 29.95 in 10.0 mi North - - N/A   Partly Cloudy
1:55 AM 60.8 °F 51.8 °F 72% 29.94 in 10.0 mi Calm Calm - N/A   Partly Cloudy
2:15 AM 60.8 °F 51.8 °F 72% 29.94 in 10.0 mi Calm Calm - N/A   Clear
2:35 AM 60.8 °F 51.8 °F 72% 29.95 in 10.0 mi Calm Calm - N/A   Clear
2:55 AM 59.0 °F 50.0 °F 72% 29.95 in 10.0 mi Calm Calm - N/A   Scattered Clouds
3:15 AM 59.0 °F 50.0 °F 72% 29.95 in 10.0 mi North - - N/A   Scattered Clouds
3:35 AM 59.0 °F 50.0 °F 72% 29.95 in 10.0 mi Calm Calm - N/A   Clear
3:55 AM 59.0 °F 50.0 °F 72% 29.95 in 10.0 mi North - - N/A   Clear
4:15 AM 59.0 °F 50.0 °F 72% 29.95 in 10.0 mi Calm Calm - N/A   Clear
4:35 AM 59.0 °F 50.0 °F 72% 29.95 in 10.0 mi Calm Calm - N/A   Scattered Clouds
4:55 AM 59.0 °F 50.0 °F 72% 29.95 in 10.0 mi Calm Calm - N/A   Partly Cloudy
5:35 AM 59.0 °F 50.0 °F 72% 29.95 in 10.0 mi North - - N/A   Mostly Cloudy
5:55 AM 59.0 °F 51.8 °F 77% 29.96 in 10.0 mi Calm Calm - N/A   Scattered Clouds
6:15 AM 57.2 °F 51.8 °F 82% 29.96 in 10.0 mi North - - N/A   Scattered Clouds
6:35 AM 59.0 °F 51.8 °F 77% 29.96 in 10.0 mi Calm Calm - N/A   Clear
6:55 AM 59.0 °F 51.8 °F 77% 29.97 in 10.0 mi North - - N/A   Clear
7:15 AM 59.0 °F 51.8 °F 77% 29.97 in 10.0 mi Calm Calm - N/A   Clear
7:35 AM 62.6 °F 53.6 °F 72% 29.97 in 10.0 mi North - - N/A   Clear
7:55 AM 66.2 °F 53.6 °F 64% 29.97 in 10.0 mi Calm Calm - N/A   Clear
8:15 AM 69.8 °F 55.4 °F 60% 29.97 in 10.0 mi North - - N/A   Clear
8:35 AM 73.4 °F 55.4 °F 53% 29.97 in 10.0 mi Calm Calm - N/A   Clear
8:55 AM 75.2 °F 51.8 °F 44% 29.98 in 10.0 mi Calm Calm - N/A   Clear
9:15 AM 78.8 °F 51.8 °F 39% 29.98 in 10.0 mi Calm Calm - N/A   Clear
9:35 AM 80.6 °F 50.0 °F 34% 29.98 in 10.0 mi Variable 4.6 mph - N/A   Clear
9:55 AM 82.4 °F 50.0 °F 32% 29.99 in 10.0 mi Variable 3.5 mph - N/A   Clear
10:15 AM 82.4 °F 50.0 °F 32% 29.99 in 10.0 mi Calm Calm - N/A   Clear
10:35 AM 82.4 °F 51.8 °F 35% 29.99 in 10.0 mi Variable 4.6 mph - N/A   Clear
10:55 AM 84.2 °F 51.8 °F 33% 29.99 in 9.0 mi Variable 4.6 mph - N/A   Clear
11:15 AM 84.2 °F 51.8 °F 33% 29.99 in 10.0 mi Variable 4.6 mph - N/A   Clear
11:35 AM 86.0 °F 51.8 °F 31% 29.99 in 10.0 mi Variable 6.9 mph - N/A   Clear
11:55 AM 86.0 °F 51.8 °F 31% 29.99 in 10.0 mi Variable 5.8 mph - N/A   Clear
12:15 PM 86.0 °F 51.8 °F 31% 29.99 in 10.0 mi Variable 6.9 mph - N/A   Clear
12:35 PM 87.8 °F 51.8 °F 29% 30.00 in 10.0 mi Variable 4.6 mph 11.5 mph N/A   Clear
12:55 PM 87.8 °F 51.8 °F 29% 30.00 in 10.0 mi Variable 5.8 mph 12.7 mph N/A   Clear
1:15 PM 87.8 °F 50.0 °F 27% 29.99 in 10.0 mi Variable 5.8 mph - N/A   Clear
1:35 PM 87.8 °F 46.4 °F 24% 29.99 in 10.0 mi Variable 5.8 mph 12.7 mph N/A   Clear
1:55 PM 87.8 °F 46.4 °F 24% 29.99 in 10.0 mi Variable 4.6 mph - N/A   Clear
2:15 PM 87.8 °F 46.4 °F 24% 30.00 in 10.0 mi Variable 5.8 mph 12.7 mph N/A   Clear
2:35 PM 89.6 °F 44.6 °F 21% 29.99 in 10.0 mi Variable 6.9 mph - N/A   Clear
2:55 PM 89.6 °F 44.6 °F 21% 29.99 in 10.0 mi Variable 5.8 mph - N/A   Clear
3:15 PM 89.6 °F 44.6 °F 21% 29.99 in 10.0 mi Variable 4.6 mph 13.8 mph N/A   Clear
3:35 PM 89.6 °F 44.6 °F 21% 29.99 in 10.0 mi WSW 8.1 mph - N/A   Clear
3:55 PM 89.6 °F 46.4 °F 22% 29.99 in 10.0 mi Variable 6.9 mph - N/A   Clear
4:15 PM 89.6 °F 46.4 °F 22% 29.99 in 10.0 mi Variable 4.6 mph - N/A   Clear
4:35 PM 87.8 °F 44.6 °F 22% 29.99 in 10.0 mi Variable 4.6 mph - N/A   Clear
4:55 PM 87.8 °F 44.6 °F 22% 29.98 in 10.0 mi Variable 5.8 mph - N/A   Clear
5:15 PM 87.8 °F 44.6 °F 22% 29.98 in 10.0 mi SW 4.6 mph - N/A   Clear
5:35 PM 86.0 °F 44.6 °F 23% 29.98 in 10.0 mi Variable 4.6 mph - N/A   Clear
5:55 PM 86.0 °F 44.6 °F 23% 29.97 in 10.0 mi Calm Calm - N/A   Clear
6:15 PM 86.0 °F 42.8 °F 22% 29.97 in 10.0 mi SW 4.6 mph - N/A   Clear
6:35 PM 86.0 °F 42.8 °F 22% 29.97 in 10.0 mi SSW 3.5 mph - N/A   Clear
6:55 PM 84.2 °F 44.6 °F 25% 29.96 in 10.0 mi SW 4.6 mph - N/A   Clear
7:15 PM 82.4 °F 44.6 °F 26% 29.96 in 10.0 mi SW 4.6 mph - N/A   Clear
7:55 PM 77.0 °F 46.4 °F 34% 29.97 in 10.0 mi Calm Calm - N/A   Clear
8:35 PM 73.4 °F 50.0 °F 44% 29.97 in 10.0 mi Calm Calm - N/A   Clear
9:15 PM 69.8 °F 50.0 °F 49% 29.98 in 10.0 mi Calm Calm - N/A   Clear
9:35 PM 69.8 °F 50.0 °F 49% 29.98 in 10.0 mi Calm Calm - N/A   Clear
9:55 PM 68.0 °F 50.0 °F 52% 29.98 in 10.0 mi Calm Calm - N/A   Clear
10:15 PM 66.2 °F 50.0 °F 56% 29.98 in 10.0 mi Calm Calm - N/A   Clear
10:35 PM 64.4 °F 50.0 °F 59% 29.99 in 10.0 mi Calm Calm - N/A   Clear
10:55 PM 64.4 °F 50.0 °F 59% 29.99 in 10.0 mi Calm Calm - N/A   Clear
11:15 PM 64.4 °F 51.8 °F 64% 29.99 in 10.0 mi Calm Calm - N/A   Clear
11:55 PM 62.6 °F 50.0 °F 63% 29.99 in 10.0 mi Calm Calm - N/A   Clear